Waupaca, WI

7:44 PM CDT on April 25, 2017 (GMT -0500)
Waupaca Municipal

Weather History for KPCZ - March, 2012

Change the Weather History Date:

Wednesday, March 7, 2012

  Actual Average Record
Temperature  
Mean Temperature 52 °F -  
Max Temperature 60 °F 38 °F 65 °F (2016)
Min Temperature 42 °F 18 °F -6 °F (1953)
Degree Days  
Heating Degree Days 13    
Growing Degree Days 2 (Base 50)    
Moisture  
Dew Point 42 °F    
Average Humidity 65    
Maximum Humidity 94    
Minimum Humidity 55    
Precipitation  
Precipitation 0.05 in - - ()
Sea Level Pressure  
Sea Level Pressure 29.68 in    
Wind  
Wind Speed 11 mph (SSW)    
Max Wind Speed 24 mph    
Max Gust Speed 34 mph    
Visibility 10 miles    
Events Rain    
Averages and records for this station are not official NWS values.
T = Trace of Precipitation, MM = Missing Value Source: NWS Daily Summary

Daily Weather History Graph

Daily Weather History Graph

Search for Another Location

Airport or City:

Trip Planner

Search our weather history database for the weather conditions in past years. The results will help you decide how hot, cold, wet, or windy it might be!

Date:

Astronomy

Mar. 07, 2012 Rise Set
Actual Time 6:21 AM CST 5:52 PM CST
Civil Twilight 5:52 AM CST 6:21 PM CST
Nautical Twilight 5:19 AM CST 6:55 PM CST
Astronomical Twilight 4:45 AM CST 7:29 PM CST
Moon 5:30 PM CST (3/7) 5:32 AM CST (3/7)
Length of Visible Light 12h 28m
Length of Day
11h 30m
Waxing Gibbous, 99% of the Moon is Illuminated
Mar 7
Waxing Gibbous
Mar 8
Full
Mar 14
Last Quarter
Mar 22
New
Mar 30
First Quarter

Hourly Weather History & Observations

Time (CST) Temp. Windchill Dew Point Humidity Pressure Visibility Wind Dir Wind Speed Gust Speed Precip Events Conditions
12:15 AM 46.4 °F 42.4 °F 33.8 °F 62% 29.76 in 10.0 mi South 8.1 mph - N/A   Clear
12:35 AM 46.4 °F 43.5 °F 33.8 °F 62% 29.76 in 10.0 mi South 5.8 mph - N/A   Clear
12:55 AM 46.4 °F 44.3 °F 33.8 °F 62% 29.76 in 10.0 mi South 4.6 mph - N/A   Clear
1:35 AM 46.4 °F 42.9 °F 33.8 °F 62% 29.77 in 10.0 mi South 6.9 mph - N/A   Clear
1:55 AM 46.4 °F 42.9 °F 33.8 °F 62% 29.76 in 10.0 mi South 6.9 mph - N/A   Clear
2:15 AM 46.4 °F 43.5 °F 33.8 °F 62% 29.76 in 10.0 mi South 5.8 mph - N/A   Clear
2:35 AM 46.4 °F 43.5 °F 33.8 °F 62% 29.76 in 10.0 mi South 5.8 mph - N/A   Clear
3:15 AM 46.4 °F 42.9 °F 33.8 °F 62% 29.75 in 10.0 mi South 6.9 mph - N/A   Clear
3:35 AM 46.4 °F 44.3 °F 33.8 °F 62% 29.75 in 10.0 mi South 4.6 mph - N/A   Clear
3:55 AM 46.4 °F 42.4 °F 33.8 °F 62% 29.75 in 10.0 mi South 8.1 mph - N/A   Clear
4:15 AM 46.4 °F 42.4 °F 35.6 °F 66% 29.75 in 10.0 mi South 8.1 mph - N/A   Clear
4:35 AM 46.4 °F 42.4 °F 35.6 °F 66% 29.75 in 10.0 mi South 8.1 mph - N/A   Clear
4:55 AM 46.4 °F 42.4 °F 35.6 °F 66% 29.75 in 10.0 mi South 8.1 mph - N/A   Clear
5:35 AM 48.2 °F - 35.6 °F 62% 29.75 in 10.0 mi South 8.1 mph - N/A   Overcast
5:55 AM 48.2 °F - 35.6 °F 62% 29.75 in 10.0 mi South 9.2 mph - N/A   Overcast
6:35 AM 50.0 °F - 37.4 °F 62% 29.74 in 10.0 mi South 10.4 mph - N/A   Overcast
7:35 AM 50.0 °F - 37.4 °F 62% 29.73 in 10.0 mi South 10.4 mph - N/A   Scattered Clouds
7:55 AM 51.8 °F - 39.2 °F 62% 29.73 in 10.0 mi South 13.8 mph 18.4 mph N/A   Mostly Cloudy
8:15 AM 53.6 °F - 41.0 °F 62% 29.72 in 10.0 mi South 12.7 mph 19.6 mph N/A   Scattered Clouds
8:35 AM 53.6 °F - 41.0 °F 62% 29.71 in 10.0 mi South 12.7 mph 25.3 mph N/A   Scattered Clouds
8:55 AM 53.6 °F - 41.0 °F 62% 29.71 in 10.0 mi South 15.0 mph 23.0 mph N/A   Overcast
9:35 AM 53.6 °F - 41.0 °F 62% 29.70 in 10.0 mi South 16.1 mph 21.9 mph N/A   Overcast
9:55 AM 55.4 °F - 41.0 °F 58% 29.69 in 10.0 mi South 19.6 mph 24.2 mph N/A   Overcast
10:15 AM 55.4 °F - 42.8 °F 63% 29.69 in 10.0 mi South 23.0 mph 28.8 mph N/A   Scattered Clouds
10:35 AM 55.4 °F - 42.8 °F 63% 29.69 in 10.0 mi SSW 17.3 mph 25.3 mph N/A   Mostly Cloudy
10:55 AM 57.2 °F - 42.8 °F 59% 29.68 in 10.0 mi SSW 19.6 mph 27.6 mph N/A   Overcast
11:15 AM 59.0 °F - 42.8 °F 55% 29.68 in 10.0 mi SSW 24.2 mph 32.2 mph N/A   Overcast
11:35 AM 59.0 °F - 42.8 °F 55% 29.67 in 10.0 mi SSW 21.9 mph 29.9 mph N/A   Overcast
11:55 AM 59.0 °F - 42.8 °F 55% 29.66 in 10.0 mi SSW 17.3 mph 25.3 mph N/A   Overcast
12:15 PM 59.0 °F - 42.8 °F 55% 29.66 in 10.0 mi SSW 21.9 mph 33.4 mph N/A   Overcast
12:35 PM 59.0 °F - 44.6 °F 59% 29.65 in 10.0 mi SSW 19.6 mph 27.6 mph N/A   Overcast
12:55 PM 59.0 °F - 44.6 °F 59% 29.64 in 10.0 mi SSW 19.6 mph 34.5 mph N/A   Overcast
1:15 PM 59.0 °F - 44.6 °F 59% 29.64 in 10.0 mi SSW 20.7 mph 27.6 mph N/A   Overcast
1:55 PM 59.0 °F - 44.6 °F 59% 29.63 in 10.0 mi SSW 16.1 mph 24.2 mph N/A   Overcast
2:15 PM 59.0 °F - 44.6 °F 59% 29.63 in 10.0 mi SSW 11.5 mph - N/A   Overcast
2:35 PM 59.0 °F - 44.6 °F 59% 29.63 in 10.0 mi South 16.1 mph 25.3 mph N/A   Overcast
2:55 PM 59.0 °F - 46.4 °F 63% 29.63 in 10.0 mi SSW 12.7 mph 21.9 mph N/A   Overcast
3:15 PM 59.0 °F - 46.4 °F 63% 29.62 in 10.0 mi SSW 12.7 mph 21.9 mph N/A   Overcast
3:35 PM 59.0 °F - 46.4 °F 63% 29.62 in 10.0 mi SSW 15.0 mph 21.9 mph N/A   Overcast
3:55 PM 60.8 °F - 46.4 °F 59% 29.62 in 10.0 mi SSW 18.4 mph 21.9 mph N/A   Overcast
4:15 PM 60.8 °F - 46.4 °F 59% 29.61 in 10.0 mi SSW 18.4 mph 28.8 mph N/A   Overcast
4:35 PM 60.8 °F - 48.2 °F 63% 29.61 in 10.0 mi SSW 17.3 mph 25.3 mph N/A   Overcast
4:55 PM 60.8 °F - 48.2 °F 63% 29.60 in 10.0 mi SSW 19.6 mph 24.2 mph N/A   Overcast
5:15 PM 59.0 °F - 50.0 °F 72% 29.61 in 10.0 mi SSW 16.1 mph 21.9 mph N/A   Overcast
5:35 PM 59.0 °F - 50.0 °F 72% 29.61 in 10.0 mi SSW 16.1 mph 24.2 mph N/A   Overcast
5:55 PM 59.0 °F - 50.0 °F 72% 29.61 in 10.0 mi SSW 13.8 mph 20.7 mph N/A   Overcast
6:15 PM 59.0 °F - 50.0 °F 72% 29.61 in 10.0 mi SSW 15.0 mph 24.2 mph N/A   Overcast
6:35 PM 55.4 °F - 50.0 °F 82% 29.62 in 7.0 mi WSW 10.4 mph - N/A Rain Rain
7:15 PM 55.4 °F - 51.8 °F 88% 29.62 in 7.0 mi SSW 9.2 mph - 0.02 in   Drizzle
7:35 PM 53.6 °F - 51.8 °F 94% 29.63 in 10.0 mi SW 11.5 mph - 0.02 in Rain Light Rain
7:55 PM 53.6 °F - 50.0 °F 88% 29.63 in 10.0 mi SW 16.1 mph 20.7 mph 0.02 in   Overcast
8:15 PM 53.6 °F - 48.2 °F 82% 29.65 in 5.0 mi West 13.8 mph 29.9 mph 0.02 in Rain Light Rain
8:35 PM 50.0 °F - 44.6 °F 82% 29.67 in 10.0 mi West 17.3 mph 23.0 mph 0.03 in   Overcast
8:55 PM 44.6 °F 37.2 °F 41.0 °F 87% 29.69 in 7.0 mi West 17.3 mph 27.6 mph 0.03 in   Overcast
9:15 PM 42.8 °F 35.8 °F 37.4 °F 81% 29.70 in 10.0 mi WNW 13.8 mph 26.5 mph N/A   Overcast
9:55 PM 41.0 °F 35.8 °F 35.6 °F 81% 29.73 in 7.0 mi West 8.1 mph - N/A   Overcast
10:15 PM 39.2 °F 33.0 °F 35.6 °F 87% 29.74 in 7.0 mi West 9.2 mph - N/A   Overcast
10:35 PM 39.2 °F 31.6 °F 35.6 °F 87% 29.75 in 7.0 mi West 12.7 mph 16.1 mph N/A   Overcast
10:55 PM 39.2 °F 32.0 °F 35.6 °F 87% 29.74 in 7.0 mi West 11.5 mph - N/A   Overcast
11:15 PM 37.4 °F 29.8 °F 35.6 °F 93% 29.76 in 7.0 mi West 11.5 mph - N/A   Overcast
11:55 PM 37.4 °F 30.3 °F 33.8 °F 87% 29.77 in 7.0 mi West 10.4 mph 18.4 mph N/A   Overcast